Location: Crystal Bay
(39.2282°N, 120.0042°W)
Time: 05:57:20
(UTC+00:00)

BlueWalker 3 - Visible Passes

Search period start: 15 December 2025 00:00
Search period end: 25 December 2025 00:00
Orbit: 454 x 462 km, 53.2° (Epoch: 14 December)

Date Brightness Start Highest point End Pass type
(mag) Time Alt. Az. Time Alt. Az. Time Alt. Az.
16 Dec 5.3 14:42:11 10° SSE 14:44:01 14° SE 14:45:51 10° E visible
19 Dec 2.6 14:32:47 10° SSW 14:36:17 54° SE 14:39:48 10° ENE visible
20 Dec 3.2 13:57:59 10° SSW 14:01:20 39° SE 14:04:43 10° ENE visible
21 Dec 3.7 13:23:16 10° SSW 13:26:24 29° SE 13:29:33 10° ENE visible
22 Dec 4.0 12:51:01 21° SE 12:51:29 22° SE 12:54:19 10° ENE visible
22 Dec 2.2 14:25:25 10° WSW 14:28:49 40° NW 14:32:14 10° NE visible
23 Dec 5.2 12:18:39 11° E 12:18:39 11° E 12:18:54 10° E visible
23 Dec 1.9 13:52:29 33° W 13:53:45 51° NW 13:57:17 10° NE visible
24 Dec 2.5 13:19:41 43° NNE 13:19:41 43° NNE 13:22:17 10° NE visible
